Location: ???????
(55.3754°N, 39.3545°E)
Time: 19:05:31
(UTC+00:00)

NOSS 3-4 (A) - Pass Details

Date: 14 April 2026
Orbit: 769 x 1442 km, 63.4° (Epoch: 10 January)

Event Time Altitude Azimuth Distance (km) Brightness Sun altitude
Rises 23:38:04 0° 299° (WNW) 3,476 6.3 -19.1°
Reaches altitude 10° 23:40:30 10° 305° (NW) 2,612 5.7 -18.9°
Maximum altitude 23:46:28 51° 21° (NNE) 1,266 4.5 -18.4°
Drops below altitude 10° 23:53:29 10° 97° (E) 3,066 6.5 -17.7°
Sets 23:56:32 0° 102° (ESE) 4,133 7.2 -17.5°
